Preview of NWS' New Version of Forecast
This preview is not operational and should not be used for support decisions.

Regional Weather Roundup (RWR)

Issued by National Weather Service (NWS)

                            
000
ASUS42 KTBW 180115
RWRFL 
FLORIDA REGIONAL WEATHER ROUNDUP
NATIONAL WEATHER SERVICE TAMPA BAY RUSKIN FL
900 PM EDT WED APR 17 2019

NOTE: "FAIR" INDICATES FEW OR NO CLOUDS BELOW 12,000 FEET WITH NO
SIGNIFICANT WEATHER AND/OR OBSTRUCTIONS TO VISIBILITY.

FLZ001>010-012>015-112-114-115-180200-
PANHANDLE FLORIDA
  
CITY           SKY/WX    TMP DP  RH WIND       PRES   REMARKS
PENSACOLA      MOCLDY    71  70  96 SE9       29.99F                  
PENSACOLA NAS  MOCLDY    70  69  97 E12       29.99F                  
MILTON NAS     MOCLDY    67  64  90 SE6       30.00F                  
CRESTVIEW      FAIR      70  64  81 S3        30.03S                  
DUKE FIELD     FAIR      70  67  91 SE5       30.02S                  
VALPARAISO     CLOUDY    70  67  90 SE8       30.01F                  
MARY ESTHER    MOCLDY    70  66  87 SE9       30.00S                  
PANAMA CITY    FAIR      70  64  81 CALM      30.02F                  
TYNDALL AFB    FAIR      69  63  81 S7        30.03R                  
APALACHICOLA   FAIR      66  62  87 CALM      30.03S                  

STATION/POSITION SKY/WX   TEMP    WIND        PRES    WAVE   SWELL
                          AIR SEA DIR/SP/G            HT/PER HT/PER
                          (F)     (DEG/KT/KT) (MB)    (FT/S) (FT/S)
30.1N   87.6W                                 1015.7F
29.2N   88.2W                     100/ 12/ 14 1015.2F   2/ 5
PANAMA CITY BEAC           70 72  150/ 10/ 12 1017.2F
TOWER C          NOT AVBL

$$
FLZ011-016>038-118-127-128-134-139-239-180200-
NORTH FLORIDA
  
CITY           SKY/WX    TMP DP  RH WIND       PRES   REMARKS
MARIANNA       FAIR      74  62  66 SW9       30.02R                  
TALLAHASSEE    CLOUDY    71  59  65 CALM      30.03S                  
PERRY          FAIR      69  60  73 CALM      30.05R                  
LIVE OAK       CLOUDY    73  63  68 CALM      30.04R                  
CROSS CITY     FAIR      70  62  77 CALM      30.04R                  
LAKE CITY      FAIR      72  61  68 E5        30.05R                  
GAINESVILLE    FAIR      75  63  66 E7        30.07R                  
PALATKA        FAIR     N/A N/A N/A E6        30.06R                  
MAYPORT NAS    MOCLDY    71  66  84 E8        30.07R                  
JACKSONVILLE   MOCLDY    70  62  76 E5        30.06R                  
JAX NAS        MOCLDY    74  63  68 SE8       30.07R                  
JAX CECIL      CLEAR     72  63  73 SE13      30.06R                  
FERNANDINA BEA FAIR      69  65  86 SE8       30.07R                  
ST AUGUSTINE   FAIR      72  67  84 E7        30.07R                  
PALM COAST     FAIR      70  63  77 SE3       30.06R                  

STATION/POSITION SKY/WX   TEMP    WIND        PRES    WAVE   SWELL
                          AIR SEA DIR/SP/G            HT/PER HT/PER
                          (F)     (DEG/KT/KT) (MB)    (FT/S) (FT/S)
SHELL POINT      NOT AVBL
KEATON BEACH               71     340/  3/  4 1017.4R
CEDAR KEY                  73     330/  3/  5 1016.5F
FERNANDINA                 72 68  120/  3/  6 1018.9R
30.7N   81.3W                 69                N/A     2/11   2/11
MAYPORT                    72 68  120/  5/  8 1018.3R
31.4N   80.9W              69 69  120/  8/ 10 1018.2    2/ 8   2/ 8
ST AUGUSTINE               72 72  110/  6/  7 1018.1R

$$
FLZ040-043>046-052-053-057-058-063-144-180200-
INTERIOR CENTRAL FLORIDA
  
CITY           SKY/WX    TMP DP  RH WIND       PRES   REMARKS
OCALA          FAIR      76  60  57 SE5       30.04R                  
LEESBURG       FAIR      74  60  61 SE12      30.05R                  
SANFORD        FAIR      71  62  73 SE8       30.06R                  
ORLANDO EXEC   FAIR      73  60  63 SE9       30.06R                  
ORLANDO INTL   MOCLDY    73  60  63 E9        30.06S                  
KISSIMMEE      FAIR      74  62  66 E8        30.06S                  
WINTER HAVEN   FAIR      75  60  59 E10       30.05S                  
LAKELAND       PTCLDY    75  59  57 E10       30.04R                  
BARTOW         FAIR      73  59  60 E7        30.04R                  
SEBRING        FAIR      72  62  71 E10       30.05R                  
OKEECHOBEE     MOCLDY    70  59  68 E3        30.06R                  

$$
FLZ041-047-054-059-064-141-147-180200-
EAST CENTRAL FLORIDA
  
CITY           SKY/WX    TMP DP  RH WIND       PRES   REMARKS
DAYTONA BEACH  MOCLDY    72  64  76 CALM      30.06S                  
DELAND         FAIR      72  61  68 SE8       30.06R                  
NEW SMYRNA BEA PTCLDY    72  63  73 SE3       30.07S                  
JFK SPACE CTR  FAIR      72  63  72 SE5       30.06S                  
TITUSVILLE     PTCLDY    75  63  64 SE7       30.07S                  
CAPE CANAVERAL FAIR      71  58  64 SE9       30.06R                  
PATRICK AFB    FAIR      75  62  64 E13       30.06R                  
MELBOURNE      FAIR      76  60  57 E10       30.06R                  
VERO BEACH     FAIR      74  63  68 E9        30.06R                  
FT PIERCE      FAIR      73  61  65 E9        30.06R                  
STUART         PTCLDY    75  59  57 SE12      30.07R                  

STATION/POSITION SKY/WX   TEMP    WIND        PRES    WAVE   SWELL
                          AIR SEA DIR/SP/G            HT/PER HT/PER
                          (F)     (DEG/KT/KT) (MB)    (FT/S) (FT/S)
28.5N   80.2W              76     120/ 12/ 14 1018.4R
28.9N   78.5W              74 77   90/ 14/ 17 1019.3R
TRIDENT PIER               73 78  100/  8/ 11 1019.4R
28.4N   80.5W                 77                N/A     2/ 4
27.5N   80.2W                 76                N/A     3/10

$$
FLZ050-056-061-142-242-148-248-149-249-151-251-155-255-
160-260-180200-
WEST CENTRAL FLORIDA
  
CITY           SKY/WX    TMP DP  RH WIND       PRES   REMARKS
CRYSTAL RIVER  FAIR      72  64  78 CALM      30.04R                  
INVERNESS      FAIR      73  64  73 CALM      30.03R                  
BROOKSVILLE    FAIR      74  59  59 E7        30.03R                  
CLEARWATER AIR CLOUDY    72  63  73 NW3       30.02R                  
ST PETE CLEARW MOCLDY    73  63  70 NW5       30.02R                  
TAMPA INTL     FAIR      80  58  46 E10       30.02R                  
TAMPA EXEC     MOCLDY    73  59  60 E5        30.03R                  
PLANT CITY     FAIR      77  59  53 E9        30.05R                  
MACDILL AFB    CLOUDY    78  59  50 SE13      30.01R                  
PETER O KNIGHT CLOUDY    79  61  53 E13G18    30.02R                  
ST PETERSBURG  MOCLDY    80  65  59 E10       30.00R                  
SARASOTA       FAIR      74  64  71 NE3       29.99S                  
VENICE         FAIR      75  68  78 CALM      30.01S                  

STATION/POSITION SKY/WX   TEMP    WIND        PRES    WAVE   SWELL
                          AIR SEA DIR/SP/G            HT/PER HT/PER
                          (F)     (DEG/KT/KT) (MB)    (FT/S) (FT/S)
27.3N   84.2W                 76                N/A     2/ 5
CLEARWATER BEACH                  350/  6/  8   N/A
MIDDLE TAMPA BAY           76     330/  6/  8 1016.2R
VENICE                     75 78  290/  5/  5 1016.1R

$$
FLZ066-069-070-075>078-162-262-165-265-180200-
SOUTHWEST FLORIDA AND KEYS
  
CITY           SKY/WX    TMP DP  RH WIND       PRES   REMARKS
PUNTA GORDA    FAIR      74  60  61 E10       30.03R                  
FT MYERS       FAIR      76  61  59 E8        30.01R                  
SOUTHWEST INTL FAIR      76  60  57 E12       30.02R                  
NAPLES         MOCLDY    77  69  76 CALM      30.02R                  
MARCO ISLAND   MOCLDY    77  66  68 NW5       30.03R                  
IMMOKALEE      CLOUDY    75  61  60 E8        30.01R                  
MARATHON       FAIR      79  63  57 E10       30.01R                  
KEY WEST NAS   FAIR      77  64  64 E15       30.01R                  
KEY WEST INTL  FAIR      77  65  66 E14       30.01R                  

STATION/POSITION SKY/WX   TEMP    WIND        PRES    WAVE   SWELL
                          AIR SEA DIR/SP/G            HT/PER HT/PER
                          (F)     (DEG/KT/KT) (MB)    (FT/S) (FT/S)
NAPLES                     77 81   30/  4/  6 1016.5R
DRY TORTUGAS               77     120/ 13/ 14 1016.2R
SAND KEY                   76                 1016.0R
SOMBRERO KEY               77                 1015.8R

$$
FLZ067-068-071>074-168-172>174-180200-
SOUTHEAST FLORIDA 
  
CITY           SKY/WX    TMP DP  RH WIND       PRES   REMARKS
W PALM BEACH   FAIR      76  62  62 E9        30.05R                  
BOCA RATON     PTCLDY    75  61  60 SE8       30.05R                  
FT LAUDER-EXEC FAIR      76  60  57 E10       30.04R                  
FT LAUDERDALE  FAIR      76  62  62 E12       30.03R                  
POMPANO BEACH  FAIR      77  61  57 E9        30.04R                  
PEMBROKE PINES MOCLDY    75  61  61 E8        30.05R                  
OPA LOCKA      FAIR      76  62  62 E10       30.04R                  
MIAMI          FAIR      75  62  64 E9        30.04R                  
WEST KENDALL   FAIR      75  62  64 E9        30.03R                  
HOMESTEAD      FAIR      74  64  70 NE6       30.02R                  

STATION/POSITION SKY/WX   TEMP    WIND        PRES    WAVE   SWELL
                          AIR SEA DIR/SP/G            HT/PER HT/PER
                          (F)     (DEG/KT/KT) (MB)    (FT/S) (FT/S)
PORT EVERGLADES            77      80/  6/ 10 1017.1R
VIRGINIA KEY                       60/  9/ 12   N/A
LAKE WORTH                 76 79   90/  9/ 13 1018.6R
SETTLEMENT POINT           75      80/ 13/ 15 1018.0R

$$